Time,TemperatureF,DewpointF,PressureIn,WindDirection,WindDirectionDegrees,WindSpeedMPH,WindSpeedGustMPH,Humidity,HourlyPrecipIn,Conditions,Clouds,dailyrainin,SoftwareType,DateUTC
2013-05-07 00:03:00,65.0,-99.9,30.03,West,275,5.0,8.0,-999,-99.99,,,-99.99,,2013-05-07 04:03:00,
2013-05-07 00:12:00,64.0,-99.9,30.03,West,269,6.0,8.0,-999,-99.99,,,-99.99,,2013-05-07 04:12:00,
2013-05-07 00:23:00,64.0,-99.9,30.03,West,277,11.0,12.0,-999,-99.99,,,-99.99,,2013-05-07 04:23:00,
2013-05-07 00:33:00,64.0,-99.9,30.03,West,266,15.0,18.0,-999,-99.99,,,-99.99,,2013-05-07 04:33:00,
2013-05-07 00:42:00,63.0,-99.9,30.03,West,268,14.0,17.0,-999,-99.99,,,-99.99,,2013-05-07 04:42:00,
2013-05-07 00:53:00,63.0,-99.9,30.03,West,261,14.0,18.0,-999,-99.99,,,-99.99,,2013-05-07 04:53:00,
2013-05-07 01:02:00,62.0,-99.9,30.03,West,264,12.0,15.0,-999,-99.99,,,-99.99,,2013-05-07 05:02:00,
2013-05-07 01:12:00,62.0,-99.9,30.03,West,260,11.0,14.0,-999,-99.99,,,-99.99,,2013-05-07 05:12:00,
2013-05-07 01:22:00,62.0,-99.9,30.02,West,260,11.0,14.0,-999,-99.99,,,-99.99,,2013-05-07 05:22:00,
2013-05-07 01:32:00,62.0,-99.9,30.02,WSW,252,9.0,11.0,-999,-99.99,,,-99.99,,2013-05-07 05:32:00,
2013-05-07 01:43:00,62.0,-99.9,30.02,West,259,9.0,11.0,-999,-99.99,,,-99.99,,2013-05-07 05:43:00,
2013-05-07 01:52:00,62.0,-99.9,30.02,West,261,10.0,14.0,-999,-99.99,,,-99.99,,2013-05-07 05:52:00,
2013-05-07 02:02:00,62.0,-99.9,30.02,West,263,11.0,13.0,-999,-99.99,,,-99.99,,2013-05-07 06:02:00,
2013-05-07 02:12:00,62.0,-99.9,30.01,West,273,13.0,17.0,-999,-99.99,,,-99.99,,2013-05-07 06:12:00,
2013-05-07 02:22:00,62.0,-99.9,30.01,West,268,13.0,17.0,-999,-99.99,,,-99.99,,2013-05-07 06:22:00,
2013-05-07 02:32:00,62.0,-99.9,30.01,West,263,12.0,15.0,-999,-99.99,,,-99.99,,2013-05-07 06:32:00,
2013-05-07 02:42:00,61.0,-99.9,30.00,West,263,11.0,14.0,-999,-99.99,,,-99.99,,2013-05-07 06:42:00,
2013-05-07 02:52:00,61.0,-99.9,30.00,West,262,10.0,13.0,-999,-99.99,,,-99.99,,2013-05-07 06:52:00,
2013-05-07 03:02:00,61.0,-99.9,30.00,WSW,251,7.0,11.0,-999,-99.99,,,-99.99,,2013-05-07 07:02:00,
2013-05-07 03:11:00,61.0,-99.9,30.00,SW,235,6.0,9.0,-999,-99.99,,,-99.99,,2013-05-07 07:11:00,
2013-05-07 03:22:00,61.0,-99.9,30.00,WSW,242,8.0,10.0,-999,-99.99,,,-99.99,,2013-05-07 07:22:00,
2013-05-07 03:32:00,61.0,-99.9,29.99,WSW,238,7.0,10.0,-999,-99.99,,,-99.99,,2013-05-07 07:32:00,
2013-05-07 03:42:00,61.0,-99.9,29.99,WSW,253,8.0,9.0,-999,-99.99,,,-99.99,,2013-05-07 07:42:00,
2013-05-07 03:53:00,61.0,-99.9,30.00,West,263,7.0,9.0,-999,-99.99,,,-99.99,,2013-05-07 07:53:00,
2013-05-07 04:02:00,61.0,-99.9,30.00,West,262,9.0,14.0,-999,-99.99,,,-99.99,,2013-05-07 08:02:00,
2013-05-07 04:11:00,61.0,-99.9,29.99,WSW,258,11.0,14.0,-999,-99.99,,,-99.99,,2013-05-07 08:11:00,
2013-05-07 04:22:00,61.0,-99.9,29.99,WSW,258,11.0,13.0,-999,-99.99,,,-99.99,,2013-05-07 08:22:00,
2013-05-07 04:32:00,61.0,-99.9,29.99,West,263,10.0,13.0,-999,-99.99,,,-99.99,,2013-05-07 08:32:00,
2013-05-07 04:42:00,61.0,-99.9,29.99,West,259,10.0,12.0,-999,-99.99,,,-99.99,,2013-05-07 08:42:00,
2013-05-07 04:52:00,61.0,-99.9,29.99,WSW,258,10.0,13.0,-999,-99.99,,,-99.99,,2013-05-07 08:52:00,
2013-05-07 05:02:00,61.0,-99.9,29.99,West,260,10.0,13.0,-999,-99.99,,,-99.99,,2013-05-07 09:02:00,
2013-05-07 05:12:00,61.0,-99.9,29.98,West,261,11.0,13.0,-999,-99.99,,,-99.99,,2013-05-07 09:12:00,
2013-05-07 05:23:00,61.0,-99.9,29.98,West,262,9.0,12.0,-999,-99.99,,,-99.99,,2013-05-07 09:23:00,
2013-05-07 05:33:00,61.0,-99.9,29.98,West,262,10.0,13.0,-999,-99.99,,,-99.99,,2013-05-07 09:33:00,
2013-05-07 05:43:00,61.0,-99.9,29.99,West,266,11.0,13.0,-999,-99.99,,,-99.99,,2013-05-07 09:43:00,
2013-05-07 05:53:00,61.0,-99.9,29.99,WSW,257,10.0,13.0,-999,-99.99,,,-99.99,,2013-05-07 09:53:00,
2013-05-07 06:03:00,61.0,-99.9,29.99,West,265,11.0,13.0,-999,-99.99,,,-99.99,,2013-05-07 10:03:00,
2013-05-07 06:13:00,62.0,-99.9,29.99,West,270,9.0,13.0,-999,-99.99,,,-99.99,,2013-05-07 10:13:00,
2013-05-07 06:23:00,61.0,-99.9,29.99,West,269,11.0,13.0,-999,-99.99,,,-99.99,,2013-05-07 10:23:00,
2013-05-07 06:33:00,61.0,-99.9,30.00,WSW,258,10.0,13.0,-999,-99.99,,,-99.99,,2013-05-07 10:33:00,
2013-05-07 06:42:00,61.0,-99.9,30.00,West,265,8.0,11.0,-999,-99.99,,,-99.99,,2013-05-07 10:42:00,
2013-05-07 06:52:00,61.0,-99.9,30.00,WSW,248,8.0,11.0,-999,-99.99,,,-99.99,,2013-05-07 10:52:00,
2013-05-07 07:03:00,61.0,-99.9,30.01,WSW,249,9.0,9.0,-999,-99.99,,,-99.99,,2013-05-07 11:03:00,
2013-05-07 07:12:00,61.0,-99.9,30.01,WSW,240,9.0,10.0,-999,-99.99,,,-99.99,,2013-05-07 11:12:00,
2013-05-07 07:22:00,60.0,-99.9,30.01,WSW,253,9.0,10.0,-999,-99.99,,,-99.99,,2013-05-07 11:22:00,
2013-05-07 07:32:00,60.0,-99.9,30.01,WSW,258,7.0,9.0,-999,-99.99,,,-99.99,,2013-05-07 11:32:00,
2013-05-07 07:42:00,61.0,-99.9,30.02,WSW,248,8.0,10.0,-999,-99.99,,,-99.99,,2013-05-07 11:42:00,
2013-05-07 07:52:00,61.0,-99.9,30.02,SW,236,9.0,10.0,-999,-99.99,,,-99.99,,2013-05-07 11:52:00,
2013-05-07 08:02:00,61.0,-99.9,30.02,SW,232,8.0,11.0,-999,-99.99,,,-99.99,,2013-05-07 12:02:00,
2013-05-07 08:12:00,61.0,-99.9,30.02,SW,222,7.0,10.0,-999,-99.99,,,-99.99,,2013-05-07 12:12:00,
2013-05-07 08:22:00,62.0,-99.9,30.03,SW,232,8.0,10.0,-999,-99.99,,,-99.99,,2013-05-07 12:22:00,
2013-05-07 08:32:00,62.0,-99.9,30.03,WSW,245,10.0,12.0,-999,-99.99,,,-99.99,,2013-05-07 12:32:00,
2013-05-07 08:42:00,62.0,-99.9,30.03,WSW,244,10.0,12.0,-999,-99.99,,,-99.99,,2013-05-07 12:42:00,
2013-05-07 08:52:00,63.0,-99.9,30.03,WSW,243,11.0,12.0,-999,-99.99,,,-99.99,,2013-05-07 12:52:00,
2013-05-07 09:02:00,64.0,-99.9,30.03,WSW,238,10.0,13.0,-999,-99.99,,,-99.99,,2013-05-07 13:02:00,
2013-05-07 09:11:00,64.0,-99.9,30.04,WSW,240,11.0,14.0,-999,-99.99,,,-99.99,,2013-05-07 13:11:00,
2013-05-07 09:22:00,64.0,-99.9,30.04,WSW,240,10.0,14.0,-999,-99.99,,,-99.99,,2013-05-07 13:22:00,
2013-05-07 09:32:00,64.0,-99.9,30.04,WSW,238,13.0,15.0,-999,-99.99,,,-99.99,,2013-05-07 13:32:00,
2013-05-07 09:42:00,64.0,-99.9,30.04,SW,230,10.0,14.0,-999,-99.99,,,-99.99,,2013-05-07 13:42:00,
2013-05-07 09:52:00,64.0,-99.9,30.04,SW,227,11.0,13.0,-999,-99.99,,,-99.99,,2013-05-07 13:52:00,
2013-05-07 10:02:00,65.0,-99.9,30.04,SW,218,9.0,12.0,-999,-99.99,,,-99.99,,2013-05-07 14:02:00,
2013-05-07 10:11:00,65.0,-99.9,30.04,SW,226,11.0,13.0,-999,-99.99,,,-99.99,,2013-05-07 14:11:00,
2013-05-07 10:22:00,66.0,-99.9,30.04,WSW,239,15.0,19.0,-999,-99.99,,,-99.99,,2013-05-07 14:22:00,
2013-05-07 10:32:00,66.0,-99.9,30.04,SW,233,16.0,21.0,-999,-99.99,,,-99.99,,2013-05-07 14:32:00,
2013-05-07 10:42:00,67.0,-99.9,30.04,WSW,237,14.0,19.0,-999,-99.99,,,-99.99,,2013-05-07 14:42:00,
2013-05-07 10:52:00,67.0,-99.9,30.04,WSW,237,17.0,19.0,-999,-99.99,,,-99.99,,2013-05-07 14:52:00,
2013-05-07 11:01:00,67.0,-99.9,30.04,SW,232,14.0,19.0,-999,-99.99,,,-99.99,,2013-05-07 15:01:00,
2013-05-07 11:12:00,68.0,-99.9,30.04,SW,228,12.0,18.0,-999,-99.99,,,-99.99,,2013-05-07 15:12:00,
2013-05-07 11:22:00,68.0,-99.9,30.04,SW,214,11.0,20.0,-999,-99.99,,,-99.99,,2013-05-07 15:22:00,
2013-05-07 11:33:00,67.0,-99.9,30.04,WSW,244,17.0,21.0,-999,-99.99,,,-99.99,,2013-05-07 15:33:00,
2013-05-07 11:43:00,67.0,-99.9,30.04,WSW,237,15.0,23.0,-999,-99.99,,,-99.99,,2013-05-07 15:43:00,
2013-05-07 11:53:00,68.0,-99.9,30.04,WSW,253,19.0,22.0,-999,-99.99,,,-99.99,,2013-05-07 15:53:00,
2013-05-07 12:03:00,68.0,-99.9,30.04,WSW,245,21.0,26.0,-999,-99.99,,,-99.99,,2013-05-07 16:03:00,
2013-05-07 12:12:00,68.0,-99.9,30.04,WSW,242,22.0,26.0,-999,-99.99,,,-99.99,,2013-05-07 16:12:00,
2013-05-07 12:22:00,69.0,-99.9,30.04,WSW,242,20.0,25.0,-999,-99.99,,,-99.99,,2013-05-07 16:22:00,
2013-05-07 12:32:00,69.0,-99.9,30.03,SW,236,21.0,27.0,-999,-99.99,,,-99.99,,2013-05-07 16:32:00,
2013-05-07 12:42:00,69.0,-99.9,30.03,WSW,248,22.0,26.0,-999,-99.99,,,-99.99,,2013-05-07 16:42:00,
2013-05-07 12:52:00,69.0,-99.9,30.03,West,260,17.0,22.0,-999,-99.99,,,-99.99,,2013-05-07 16:52:00,
2013-05-07 13:01:00,69.0,-99.9,30.03,WSW,239,18.0,26.0,-999,-99.99,,,-99.99,,2013-05-07 17:01:00,
2013-05-07 13:12:00,69.0,-99.9,30.03,WSW,254,18.0,24.0,-999,-99.99,,,-99.99,,2013-05-07 17:12:00,
2013-05-07 13:21:00,69.0,-99.9,30.03,WSW,251,15.0,20.0,-999,-99.99,,,-99.99,,2013-05-07 17:21:00,
2013-05-07 13:32:00,68.0,-99.9,30.03,West,265,16.0,21.0,-999,-99.99,,,-99.99,,2013-05-07 17:32:00,
2013-05-07 13:41:00,68.0,-99.9,30.03,WSW,257,12.0,16.0,-999,-99.99,,,-99.99,,2013-05-07 17:41:00,
2013-05-07 13:53:00,69.0,-99.9,30.02,West,261,10.0,12.0,-999,-99.99,,,-99.99,,2013-05-07 17:53:00,
2013-05-07 14:01:00,69.0,-99.9,30.02,WSW,246,17.0,20.0,-999,-99.99,,,-99.99,,2013-05-07 18:01:00,
2013-05-07 14:12:00,70.0,-99.9,30.01,SW,226,15.0,18.0,-999,-99.99,,,-99.99,,2013-05-07 18:12:00,
2013-05-07 14:21:00,70.0,-99.9,30.01,SW,232,13.0,18.0,-999,-99.99,,,-99.99,,2013-05-07 18:21:00,
2013-05-07 14:32:00,71.0,-99.9,30.01,WSW,237,16.0,22.0,-999,-99.99,,,-99.99,,2013-05-07 18:32:00,
2013-05-07 14:42:00,71.0,-99.9,30.01,SW,228,13.0,21.0,-999,-99.99,,,-99.99,,2013-05-07 18:42:00,
2013-05-07 14:52:00,72.0,-99.9,30.00,SW,231,13.0,24.0,-999,-99.99,,,-99.99,,2013-05-07 18:52:00,
2013-05-07 15:02:00,72.0,-99.9,30.00,SW,236,15.0,19.0,-999,-99.99,,,-99.99,,2013-05-07 19:02:00,
2013-05-07 15:11:00,72.0,-99.9,29.99,WSW,240,22.0,28.0,-999,-99.99,,,-99.99,,2013-05-07 19:11:00,
2013-05-07 15:22:00,72.0,-99.9,29.99,WSW,239,21.0,26.0,-999,-99.99,,,-99.99,,2013-05-07 19:22:00,
2013-05-07 15:32:00,72.0,-99.9,29.99,WSW,240,13.0,22.0,-999,-99.99,,,-99.99,,2013-05-07 19:32:00,
2013-05-07 15:42:00,71.0,-99.9,29.98,SW,234,21.0,26.0,-999,-99.99,,,-99.99,,2013-05-07 19:42:00,
2013-05-07 15:52:00,72.0,-99.9,29.98,SW,229,17.0,23.0,-999,-99.99,,,-99.99,,2013-05-07 19:52:00,
2013-05-07 16:02:00,72.0,-99.9,29.98,SW,236,15.0,22.0,-999,-99.99,,,-99.99,,2013-05-07 20:02:00,
2013-05-07 16:12:00,73.0,-99.9,29.97,SW,234,14.0,21.0,-999,-99.99,,,-99.99,,2013-05-07 20:12:00,
2013-05-07 16:22:00,73.0,-99.9,29.97,WSW,255,17.0,21.0,-999,-99.99,,,-99.99,,2013-05-07 20:22:00,
2013-05-07 16:32:00,73.0,-99.9,29.97,WSW,244,15.0,21.0,-999,-99.99,,,-99.99,,2013-05-07 20:32:00,
2013-05-07 16:42:00,73.0,-99.9,29.96,SW,235,17.0,22.0,-999,-99.99,,,-99.99,,2013-05-07 20:42:00,
2013-05-07 16:52:00,73.0,-99.9,29.96,WSW,255,13.0,22.0,-999,-99.99,,,-99.99,,2013-05-07 20:52:00,
2013-05-07 17:02:00,73.0,-99.9,29.97,WSW,238,15.0,23.0,-999,-99.99,,,-99.99,,2013-05-07 21:02:00,
2013-05-07 17:11:00,74.0,-99.9,29.96,West,272,14.0,21.0,-999,-99.99,,,-99.99,,2013-05-07 21:11:00,
2013-05-07 17:22:00,74.0,-99.9,29.96,West,274,14.0,17.0,-999,-99.99,,,-99.99,,2013-05-07 21:22:00,
2013-05-07 17:33:00,74.0,-99.9,29.97,West,277,13.0,15.0,-999,-99.99,,,-99.99,,2013-05-07 21:33:00,
2013-05-07 17:43:00,75.0,-99.9,29.97,West,268,15.0,19.0,-999,-99.99,,,-99.99,,2013-05-07 21:43:00,
2013-05-07 17:53:00,75.0,-99.9,29.97,West,269,13.0,20.0,-999,-99.99,,,-99.99,,2013-05-07 21:53:00,
2013-05-07 18:02:00,74.0,-99.9,29.97,West,272,9.0,12.0,-999,-99.99,,,-99.99,,2013-05-07 22:02:00,
2013-05-07 18:13:00,74.0,-99.9,29.97,West,264,10.0,13.0,-999,-99.99,,,-99.99,,2013-05-07 22:13:00,
2013-05-07 18:23:00,75.0,-99.9,29.98,West,272,13.0,19.0,-999,-99.99,,,-99.99,,2013-05-07 22:23:00,
2013-05-07 18:33:00,75.0,-99.9,29.98,West,268,13.0,17.0,-999,-99.99,,,-99.99,,2013-05-07 22:33:00,
2013-05-07 18:42:00,75.0,-99.9,29.98,West,278,14.0,17.0,-999,-99.99,,,-99.99,,2013-05-07 22:42:00,
2013-05-07 18:52:00,75.0,-99.9,29.98,West,279,12.0,18.0,-999,-99.99,,,-99.99,,2013-05-07 22:52:00,
2013-05-07 19:02:00,75.0,-99.9,29.98,WNW,293,13.0,18.0,-999,-99.99,,,-99.99,,2013-05-07 23:02:00,
2013-05-07 19:12:00,74.0,-99.9,29.98,WNW,288,11.0,16.0,-999,-99.99,,,-99.99,,2013-05-07 23:12:00,
2013-05-07 19:22:00,74.0,-99.9,29.98,WNW,287,9.0,14.0,-999,-99.99,,,-99.99,,2013-05-07 23:22:00,
2013-05-07 19:32:00,74.0,-99.9,29.98,West,281,11.0,13.0,-999,-99.99,,,-99.99,,2013-05-07 23:32:00,
2013-05-07 19:42:00,74.0,-99.9,29.99,West,281,12.0,15.0,-999,-99.99,,,-99.99,,2013-05-07 23:42:00,
2013-05-07 19:52:00,74.0,-99.9,29.99,West,269,12.0,17.0,-999,-99.99,,,-99.99,,2013-05-07 23:52:00,
2013-05-07 20:02:00,74.0,-99.9,30.00,West,270,11.0,15.0,-999,-99.99,,,-99.99,,2013-05-08 00:02:00,
2013-05-07 20:12:00,74.0,-99.9,30.00,West,269,9.0,13.0,-999,-99.99,,,-99.99,,2013-05-08 00:12:00,
2013-05-07 20:22:00,74.0,-99.9,30.00,West,272,10.0,14.0,-999,-99.99,,,-99.99,,2013-05-08 00:22:00,
2013-05-07 20:32:00,73.0,-99.9,30.01,West,269,9.0,12.0,-999,-99.99,,,-99.99,,2013-05-08 00:32:00,
2013-05-07 20:42:00,73.0,-99.9,30.01,West,273,10.0,17.0,-999,-99.99,,,-99.99,,2013-05-08 00:42:00,
2013-05-07 20:52:00,73.0,-99.9,30.01,West,270,11.0,14.0,-999,-99.99,,,-99.99,,2013-05-08 00:52:00,
2013-05-07 21:02:00,73.0,-99.9,30.02,WNW,282,10.0,12.0,-999,-99.99,,,-99.99,,2013-05-08 01:02:00,
2013-05-07 21:12:00,73.0,-99.9,30.03,West,281,8.0,10.0,-999,-99.99,,,-99.99,,2013-05-08 01:12:00,
2013-05-07 21:22:00,72.0,-99.9,30.03,West,273,8.0,14.0,-999,-99.99,,,-99.99,,2013-05-08 01:22:00,
2013-05-07 21:32:00,72.0,-99.9,30.03,West,266,8.0,9.0,-999,-99.99,,,-99.99,,2013-05-08 01:32:00,
2013-05-07 21:42:00,72.0,-99.9,30.04,WSW,258,11.0,14.0,-999,-99.99,,,-99.99,,2013-05-08 01:42:00,
2013-05-07 21:52:00,72.0,-99.9,30.04,WSW,250,8.0,11.0,-999,-99.99,,,-99.99,,2013-05-08 01:52:00,
2013-05-07 22:02:00,71.0,-99.9,30.04,WSW,253,9.0,10.0,-999,-99.99,,,-99.99,,2013-05-08 02:02:00,
2013-05-07 22:12:00,71.0,-99.9,30.04,WSW,253,8.0,11.0,-999,-99.99,,,-99.99,,2013-05-08 02:12:00,
2013-05-07 22:22:00,71.0,-99.9,30.05,WSW,250,9.0,11.0,-999,-99.99,,,-99.99,,2013-05-08 02:22:00,
2013-05-07 22:32:00,71.0,-99.9,30.05,WSW,251,9.0,11.0,-999,-99.99,,,-99.99,,2013-05-08 02:32:00,
2013-05-07 22:42:00,71.0,-99.9,30.06,WSW,258,10.0,13.0,-999,-99.99,,,-99.99,,2013-05-08 02:42:00,
2013-05-07 22:52:00,70.0,-99.9,30.06,WSW,256,10.0,11.0,-999,-99.99,,,-99.99,,2013-05-08 02:52:00,
2013-05-07 23:02:00,70.0,-99.9,30.06,WSW,253,11.0,13.0,-999,-99.99,,,-99.99,,2013-05-08 03:02:00,
2013-05-07 23:11:00,70.0,-99.9,30.06,WSW,258,9.0,12.0,-999,-99.99,,,-99.99,,2013-05-08 03:11:00,
2013-05-07 23:22:00,69.0,-99.9,30.06,West,263,12.0,15.0,-999,-99.99,,,-99.99,,2013-05-08 03:22:00,
2013-05-07 23:33:00,69.0,-99.9,30.07,West,265,12.0,17.0,-999,-99.99,,,-99.99,,2013-05-08 03:33:00,
2013-05-07 23:43:00,69.0,-99.9,30.07,West,266,12.0,15.0,-999,-99.99,,,-99.99,,2013-05-08 03:43:00,
2013-05-07 23:53:00,69.0,-99.9,30.07,West,260,13.0,16.0,-999,-99.99,,,-99.99,,2013-05-08 03:53:00,